Weather History for Scottsbluff, NE

Change the Weather History Date:

Monday, August 12, 2013

  Actual Average Record
Temperature  
Mean Temperature 70 °F 73 °F  
Max Temperature 85 °F 89 °F 100 °F (1938)
Min Temperature 54 °F 57 °F 42 °F (2004)
Degree Days  
Heating Degree Days 0 0  
Month to date heating degree days 0 0  
Since 1 June heating degree days 23 66  
Since 1 July heating degree days 2 6  
Cooling Degree Days 5 8  
Month to date cooling degree days 90 105  
Year to date cooling degree days 656 541  
Since 1 June cooling degree days 602 518  
Growing Degree Days 17 (Base 50)    
Moisture  
Dew Point 54 °F    
Average Humidity 65    
Maximum Humidity 93    
Minimum Humidity 37    
Precipitation  
Precipitation 0.00 in 0.04 in 0.77 in (2005)
Month to date precipitation 0.74 0.58  
Year to date precipitation 7.80 11.58  
Snow  
Snow 0.00 in 0.00 in - ()
Month to date snowfall 0.0 0.0  
Since 1 July snowfall 0.0 0.0  
Snow Depth 0.00 in    
Sea Level Pressure  
Sea Level Pressure 30.04 in    
Wind  
Wind Speed 5 mph (SSE)    
Max Wind Speed 23 mph    
Max Gust Speed 29 mph    
Visibility 10 miles    
Events      
T = Trace of Precipitation, MM = Missing Value Source: NWS Daily Summary

Daily Weather History Graph

Daily Weather History Graph

Search for Another Location

Airport:

Trip Planner

Search our weather history database for the weather conditions in past years. The results will help you decide how hot, cold, wet, or windy it might be!

Date:

Astronomy

Aug. 12, 2013 Rise Set
Actual Time 5:59 AM MDT 7:58 PM MDT
Civil Twilight 5:29 AM MDT 8:28 PM MDT
Nautical Twilight 4:52 AM MDT 9:05 PM MDT
Astronomical Twilight 4:12 AM MDT 9:45 PM MDT
Moon 11:59 AM MDT (8/12) 10:45 PM MDT (8/12)
Length of Visible Light 14h 59m
Length of Day
13h 58m
Waxing Crescent, 32% of the Moon is Illuminated
Aug 12
Waxing Crescent
Aug 14
First Quarter
Aug 20
Full
Aug 28
Last Quarter
Sep 5
New

Hourly Weather History & Observations

Time (MDT) Temp. Heat Index Dew Point Humidity Pressure Visibility Wind Dir Wind Speed Gust Speed Precip Events Conditions
12:53 AM 60.1 °F - 55.9 °F 86% 30.07 in 10.0 mi Calm Calm - N/A   Clear
1:53 AM 59.0 °F - 55.0 °F 87% 30.04 in 10.0 mi NNE 4.6 mph - N/A   Clear
2:53 AM 57.9 °F - 54.0 °F 87% 30.04 in 10.0 mi North 3.5 mph - N/A   Clear
3:53 AM 55.9 °F - 53.1 °F 90% 30.03 in 10.0 mi NNW 3.5 mph - N/A   Clear
4:53 AM 55.9 °F - 53.1 °F 90% 30.03 in 10.0 mi Calm Calm - N/A   Mostly Cloudy
5:53 AM 54.0 °F - 52.0 °F 93% 30.06 in 10.0 mi ESE 5.8 mph - N/A   Clear
6:53 AM 57.0 °F - 54.0 °F 89% 30.06 in 9.0 mi ENE 3.5 mph - N/A   Clear
7:53 AM 62.1 °F - 57.0 °F 84% 30.07 in 10.0 mi Calm Calm - N/A   Clear
8:53 AM 66.9 °F - 57.0 °F 70% 30.07 in 10.0 mi Calm Calm - N/A   Clear
9:53 AM 71.1 °F - 57.9 °F 63% 30.08 in 10.0 mi Variable 4.6 mph - N/A   Clear
10:53 AM 75.0 °F - 57.0 °F 53% 30.06 in 10.0 mi Variable 3.5 mph - N/A   Clear
11:53 AM 78.1 °F - 57.0 °F 48% 30.05 in 10.0 mi South 3.5 mph - N/A   Clear
12:53 PM 82.0 °F 82.0 °F 57.9 °F 44% 30.04 in 10.0 mi SSE 8.1 mph - N/A   Clear
1:53 PM 84.0 °F 83.0 °F 55.9 °F 38% 30.01 in 10.0 mi East 6.9 mph - N/A   Clear
2:53 PM 84.0 °F 83.0 °F 55.9 °F 38% 30.01 in 10.0 mi ENE 6.9 mph - N/A   Clear
3:53 PM 82.9 °F 82.1 °F 55.9 °F 39% 29.98 in 10.0 mi East 8.1 mph - N/A   Clear
4:53 PM 82.0 °F 81.4 °F 55.0 °F 39% 30.00 in 10.0 mi SE 3.5 mph - N/A   Clear
5:53 PM 80.1 °F 80.7 °F 59.0 °F 48% 30.01 in 10.0 mi Calm Calm - N/A   Clear
6:42 PM 73.4 °F - 48.2 °F 41% 30.14 in 10.0 mi West 11.5 mph 21.9 mph N/A   Scattered Clouds
6:53 PM 72.0 °F - 48.9 °F 44% 30.02 in 10.0 mi WNW 5.8 mph - N/A   Partly Cloudy
7:53 PM 70.0 °F - 52.0 °F 53% 30.04 in 10.0 mi WSW 3.5 mph - N/A   Partly Cloudy
8:53 PM 68.0 °F - 51.1 °F 55% 30.07 in 10.0 mi NNW 8.1 mph - N/A   Clear
9:53 PM 64.0 °F - 52.0 °F 65% 30.06 in 10.0 mi WSW 6.9 mph - N/A   Clear
10:53 PM 63.0 °F - 52.0 °F 67% 30.05 in 10.0 mi SSW 6.9 mph - N/A   Clear
11:53 PM 69.1 °F - 48.0 °F 47% 30.01 in 10.0 mi SW 8.1 mph - N/A   Clear